TimePDT,TemperatureF,Dew PointF,Humidity,Sea Level PressureIn,VisibilityMPH,Wind Direction,Wind SpeedMPH,Gust SpeedMPH,PrecipitationIn,Events,Conditions,WindDirDegrees,DateUTC
12:56 AM,48.9,46.0,90,29.86,4.0,SSW,4.6,-,N/A,,Mostly Cloudy,200,2013-05-07 07:56:00
1:56 AM,48.0,46.9,96,29.88,6.0,SW,6.9,-,N/A,,Scattered Clouds,220,2013-05-07 08:56:00
2:56 AM,48.9,46.0,90,29.88,6.0,SW,8.1,-,N/A,,Partly Cloudy,230,2013-05-07 09:56:00
3:56 AM,48.0,46.0,93,29.91,6.0,SW,6.9,-,N/A,,Partly Cloudy,220,2013-05-07 10:56:00
4:56 AM,46.9,45.0,93,29.93,4.0,WSW,9.2,-,N/A,,Mostly Cloudy,240,2013-05-07 11:56:00
5:56 AM,48.0,46.0,93,29.94,3.0,WSW,4.6,-,N/A,,Overcast,240,2013-05-07 12:56:00
6:47 AM,48.2,46.4,93,29.94,8.0,West,3.5,-,N/A,,Scattered Clouds,270,2013-05-07 13:47:00
6:56 AM,48.0,46.9,96,29.96,8.0,West,4.6,-,N/A,,Scattered Clouds,280,2013-05-07 13:56:00
7:49 AM,48.2,46.4,93,29.96,8.0,WSW,6.9,-,N/A,,Mostly Cloudy,250,2013-05-07 14:49:00
7:56 AM,48.9,46.9,93,29.98,8.0,WSW,8.1,-,N/A,,Overcast,240,2013-05-07 14:56:00
8:56 AM,48.9,46.9,93,29.99,8.0,WSW,5.8,-,N/A,,Overcast,250,2013-05-07 15:56:00
9:56 AM,50.0,46.9,89,29.99,9.0,WNW,3.5,-,N/A,,Overcast,300,2013-05-07 16:56:00
10:56 AM,51.1,48.0,89,29.99,10.0,NW,4.6,-,N/A,,Overcast,310,2013-05-07 17:56:00
11:56 AM,51.1,48.9,92,29.99,8.0,NW,4.6,-,N/A,,Overcast,310,2013-05-07 18:56:00
12:47 PM,53.6,48.2,82,29.97,8.0,WNW,6.9,-,N/A,,Mostly Cloudy,290,2013-05-07 19:47:00
12:56 PM,53.1,48.9,86,29.99,8.0,WNW,6.9,-,N/A,,Scattered Clouds,300,2013-05-07 19:56:00
1:56 PM,54.0,48.9,83,29.99,9.0,WNW,8.1,-,N/A,,Partly Cloudy,300,2013-05-07 20:56:00
2:56 PM,53.1,48.9,86,29.99,10.0,West,6.9,-,N/A,,Partly Cloudy,270,2013-05-07 21:56:00
3:30 PM,53.6,50.0,88,29.97,10.0,West,8.1,-,N/A,,Scattered Clouds,260,2013-05-07 22:30:00
3:56 PM,55.0,48.9,80,29.98,10.0,West,6.9,-,N/A,,Scattered Clouds,260,2013-05-07 22:56:00
4:56 PM,55.9,48.9,77,29.98,10.0,WSW,8.1,-,N/A,,Scattered Clouds,240,2013-05-07 23:56:00
5:56 PM,57.9,48.9,72,29.97,10.0,SW,9.2,-,N/A,,Partly Cloudy,230,2013-05-08 00:56:00
6:56 PM,57.0,48.0,72,29.96,9.0,WSW,12.7,-,N/A,,Partly Cloudy,240,2013-05-08 01:56:00
7:56 PM,54.0,46.9,77,29.96,9.0,SW,6.9,-,N/A,,Partly Cloudy,230,2013-05-08 02:56:00
8:56 PM,53.1,46.9,80,29.98,10.0,SW,8.1,-,N/A,,Clear,220,2013-05-08 03:56:00
9:56 PM,51.1,46.9,86,29.99,10.0,SSW,4.6,-,N/A,,Clear,210,2013-05-08 04:56:00
10:56 PM,50.0,46.9,89,30.01,10.0,SW,8.1,-,N/A,,Clear,230,2013-05-08 05:56:00
11:56 PM,50.0,46.9,89,30.03,10.0,SSW,4.6,-,N/A,,Clear,210,2013-05-08 06:56:00